FW0135 Weather Reports


Display with metric or nautical units.
time (UTC)temp
F
wind
direction
speed
MPH
gust
MPH
rain 1hr
in
rain 24hr
in
rain mn
in
humidity
%
barometer
mb
20260904233101 69 139 0.0 0.0 0.00 0.00 0.00 79 995.2
20260904232554 70 139 0.0 0.0 0.00 0.00 0.00 79 995.1
20260904232048 70 139 0.0 0.0 0.00 0.00 0.00 78 995.1
20260904231037 71 139 0.0 0.0 0.00 0.00 0.00 78 995.1
20260904230530 71 139 0.0 0.0 0.00 0.00 0.00 80 995.1
20260904230025 71 139 0.0 0.0 0.00 0.00 0.00 79 995.1
20260904225518 72 139 0.0 0.0 0.00 0.00 0.00 77 995.1
20260904225013 72 139 0.0 0.0 0.00 0.00 0.00 79 995.1
20260904224506 73 139 0.0 0.0 0.00 0.00 0.00 78 995.0
20260904223454 74 139 0.0 0.0 0.00 0.00 0.00 74 994.8
20260904221937 74 138 0.0 0.0 0.00 0.00 0.00 67 994.9
20260904221430 75 147 0.0 0.0 0.00 0.00 0.00 69 994.8
20260904220925 75 147 0.0 0.0 0.00 0.00 0.00 68 994.8
20260904220418 75 147 0.0 0.0 0.00 0.00 0.00 67 994.8
20260904215407 76 146 0.0 0.0 0.00 0.00 0.00 65 994.8
20260904214901 76 146 0.0 0.0 0.00 0.00 0.00 64 994.8
20260904214355 76 147 0.0 0.0 0.00 0.00 0.00 63 994.8
20260904213343 77 140 0.0 0.0 0.00 0.00 0.00 66 994.7
20260904212837 77 156 0.0 2.0 0.00 0.00 0.00 63 994.7
20260904212331 77 88 0.0 2.0 0.00 0.00 0.00 61 994.7
20260904211824 77 287 0.0 2.0 0.00 0.00 0.00 62 994.6
20260904205800 77 101 0.0 2.0 0.00 0.00 0.00 62 994.7
20260904205255 77 350 0.0 4.0 0.00 0.00 0.00 62 994.7
20260904204749 77 355 0.0 4.0 0.00 0.00 0.00 62 994.6
20260904204243 77 173 1.0 3.0 0.00 0.00 0.00 64 994.5
20260904203736 77 127 1.0 2.0 0.00 0.00 0.00 64 994.6
20260904203231 77 86 0.0 3.0 0.00 0.00 0.00 67 994.6
20260904202726 77 86 1.0 3.0 0.00 0.00 0.00 64 994.5
20260904202218 77 80 0.0 2.0 0.00 0.00 0.00 62 994.5
20260904201713 77 92 0.0 2.0 0.00 0.00 0.00 62 994.4
20260904201206 77 355 0.0 2.0 0.00 0.00 0.00 67 994.5
20260904200701 77 355 0.0 2.0 0.00 0.00 0.00 68 994.5
20260904200155 77 355 0.0 2.0 0.00 0.00 0.00 70 994.4
20260904195648 77 355 0.0 2.0 0.00 0.00 0.00 68 994.5
20260904195143 77 313 0.0 2.0 0.00 0.00 0.00 65 994.5
20260904194637 77 313 0.0 2.0 0.00 0.00 0.00 66 994.5
20260904194131 77 313 0.0 2.0 0.00 0.00 0.00 63 994.5
20260904193118 77 217 1.0 5.0 0.00 0.00 0.00 64 994.7
20260904191601 77 212 1.0 4.0 0.00 0.00 0.00 63 994.8
20260904191055 78 90 0.0 5.0 0.00 0.00 0.00 66 994.8
20260904190551 78 90 0.0 5.0 0.00 0.00 0.00 71 994.7
20260904190051 78 28 0.0 3.0 0.00 0.00 0.00 70 994.8
20260904185551 78 86 1.0 3.0 0.00 0.00 0.00 70 994.9
20260904185049 78 22 1.0 3.0 0.00 0.00 0.00 68 994.7
20260904184549 78 22 1.0 4.0 0.00 0.00 0.00 71 994.8
20260904184049 77 74 1.0 4.0 0.00 0.00 0.00 65 994.9
20260904183546 77 95 0.0 3.0 0.00 0.00 0.00 69 994.9
20260904183044 77 13 1.0 2.0 0.00 0.00 0.00 70 995.0
20260904182544 76 13 1.0 3.0 0.00 0.00 0.00 70 995.3
20260904181544 77 286 0.0 2.0 0.00 0.00 0.00 75 995.3
20260904180543 77 300 0.0 2.0 0.00 0.00 0.00 69 995.1
20260904180044 77 300 0.0 3.0 0.00 0.00 0.00 69 994.9
20260904175544 77 299 1.0 3.0 0.00 0.00 0.00 69 994.9
20260904174543 77 86 1.0 6.0 0.00 0.00 0.00 69 994.8
20260904174039 77 345 0.0 3.0 0.00 0.00 0.00 67 994.9
20260904173537 78 49 0.0 3.0 0.00 0.00 0.00 68 994.9
20260904173039 78 5 1.0 4.0 0.00 0.00 0.00 66 995.0
20260904172037 78 94 1.0 5.0 0.00 0.00 0.00 68 995.1
20260904171039 78 159 0.0 2.0 0.00 0.00 0.00 66 995.2
20260904170538 78 66 0.0 4.0 0.00 0.00 0.00 67 995.2
20260904170039 78 67 0.0 4.0 0.00 0.00 0.00 69 995.2
20260904165539 77 92 1.0 2.0 0.00 0.00 0.00 73 995.3
20260904165038 76 125 0.0 2.0 0.00 0.00 0.00 71 995.4
20260904164537 76 123 0.0 2.0 0.00 0.00 0.00 77 995.4
20260904164038 75 123 0.0 2.0 0.00 0.00 0.00 78 995.4
20260904163039 75 123 0.0 3.0 0.00 0.00 0.00 75 995.5
20260904162040 75 91 0.0 2.0 0.00 0.00 0.00 79 995.5
20260904161537 74 91 0.0 3.0 0.00 0.00 0.00 77 995.5
20260904160525 74 46 0.0 0.0 0.00 0.00 0.00 80 995.5
20260904160019 74 45 0.0 0.0 0.00 0.00 0.00 78 995.5
20260904155513 74 41 0.0 0.0 0.00 0.00 0.00 75 995.5
20260904155007 73 41 0.0 0.0 0.00 0.00 0.00 76 995.6
20260904154501 73 55 0.0 0.0 0.00 0.00 0.00 80 995.8
20260904153955 73 52 0.0 2.0 0.00 0.00 0.00 81 995.7
20260904153449 72 64 1.0 3.0 0.00 0.00 0.00 80 995.7
20260904152437 72 132 0.0 2.0 0.00 0.00 0.00 85 995.7
20260904151931 72 132 0.0 2.0 0.00 0.00 0.00 84 995.7
20260904151425 71 68 0.0 2.0 0.00 0.00 0.00 87 995.8
20260904150919 71 84 1.0 3.0 0.00 0.00 0.00 87 995.8
20260904145401 69 325 0.0 3.0 0.00 0.00 0.00 88 995.8
20260904144855 69 83 0.0 3.0 0.00 0.00 0.00 89 995.8
20260904144349 68 148 0.0 2.0 0.00 0.00 0.00 89 995.8
20260904143843 68 141 0.0 3.0 0.00 0.00 0.00 91 995.9
20260904143337 68 140 0.0 3.0 0.00 0.00 0.00 91 996.0
20260904142831 67 351 0.0 0.0 0.00 0.00 0.00 92 995.9
20260904142325 67 351 0.0 0.0 0.00 0.00 0.00 93 995.9
20260904141819 67 355 0.0 0.0 0.00 0.00 0.00 94 996.1
20260904141312 67 355 0.0 0.0 0.00 0.00 0.00 94 996.1
20260904140806 67 351 0.0 0.0 0.00 0.00 0.00 94 996.1
20260904140301 66 351 0.0 0.0 0.00 0.00 0.00 94 996.2
20260904135755 66 351 0.0 0.0 0.00 0.00 0.00 94 996.2
20260904135249 66 351 0.0 0.0 0.00 0.00 0.00 94 996.3
20260904134742 65 351 0.0 0.0 0.00 0.00 0.00 94 996.2
20260904134237 65 351 0.0 0.0 0.00 0.00 0.00 94 996.2
20260904133731 65 351 0.0 0.0 0.00 0.00 0.00 94 996.2
20260904133225 65 351 0.0 0.0 0.00 0.00 0.00 94 996.2
20260904132719 64 351 0.0 0.0 0.00 0.00 0.00 94 996.3
20260904132213 64 351 0.0 0.0 0.00 0.00 0.00 94 996.3
20260904131709 64 351 0.0 0.0 0.00 0.00 0.00 94 996.3
20260904131201 64 351 0.0 0.0 0.00 0.00 0.00 94 996.3
20260904130655 63 351 0.0 0.0 0.00 0.00 0.00 94 996.3
20260904125643 63 351 0.0 0.0 0.00 0.00 0.00 94 996.3
20260904124125 63 351 0.0 0.0 0.00 0.00 0.00 94 996.3
20260904123619 63 351 0.0 0.0 0.00 0.00 0.00 94 996.2
20260904122607 62 351 0.0 0.0 0.00 0.00 0.00 94 996.2
20260904122100 62 351 0.0 0.0 0.00 0.00 0.00 94 996.2
20260904121049 62 351 0.0 0.0 0.00 0.00 0.00 94 996.2
20260904120544 62 351 0.0 0.0 0.00 0.00 0.00 94 996.3
20260904115531 62 351 0.0 0.0 0.00 0.00 0.00 94 996.2
20260904115025 62 351 0.0 0.0 0.00 0.00 0.00 93 996.3
20260904114519 62 351 0.0 0.0 0.00 0.00 0.00 93 996.3
20260904114013 62 347 0.0 0.0 0.00 0.00 0.00 93 996.4
20260904112503 62 347 0.0 0.0 0.00 0.00 0.00 93 996.2
20260904112003 62 347 0.0 0.0 0.00 0.00 0.00 93 996.1
20260904111504 62 347 0.0 0.0 0.00 0.00 0.00 93 996.1
20260904111001 62 347 0.0 0.0 0.00 0.00 0.00 93 996.1
20260904110501 63 347 0.0 0.0 0.00 0.00 0.00 93 996.0
20260904110002 63 347 0.0 0.0 0.00 0.00 0.00 93 996.0
20260904105459 63 347 0.0 0.0 0.00 0.00 0.00 93 996.0
20260904104959 63 347 0.0 0.0 0.00 0.00 0.00 93 996.0
20260904104459 63 347 0.0 0.0 0.00 0.00 0.00 93 996.0
20260904103958 63 347 0.0 0.0 0.00 0.01 0.00 93 995.9
20260904103456 63 347 0.0 0.0 0.00 0.01 0.00 93 995.9
20260904102953 63 347 0.0 0.0 0.00 0.01 0.00 93 995.9
20260904102450 63 347 0.0 0.0 0.00 0.01 0.00 93 995.9
20260904101950 63 347 0.0 0.0 0.00 0.01 0.00 93 995.9
20260904101447 63 347 0.0 0.0 0.00 0.01 0.00 93 995.8
20260904100947 63 347 0.0 0.0 0.00 0.01 0.00 93 995.7
20260904100448 63 347 0.0 0.0 0.00 0.01 0.00 93 995.7
20260904095944 64 347 0.0 0.0 0.00 0.01 0.00 93 995.7
20260904095443 64 347 0.0 0.0 0.00 0.01 0.00 93 995.7
20260904094943 64 347 0.0 0.0 0.00 0.01 0.00 93 995.7
20260904094442 64 347 0.0 0.0 0.00 0.01 0.00 93 995.7
20260904093942 64 347 0.0 0.0 0.00 0.02 0.00 93 995.7
20260904093442 64 347 0.0 0.0 0.00 0.02 0.00 93 995.7
20260904092943 64 347 0.0 0.0 0.00 0.02 0.00 93 995.8
20260904091443 64 347 0.0 0.0 0.00 0.02 0.00 93 995.7
20260904090943 64 347 0.0 0.0 0.00 0.02 0.00 93 995.7
20260904090442 64 347 0.0 0.0 0.00 0.02 0.00 93 995.7
20260904085943 64 347 0.0 0.0 0.00 0.02 0.00 93 995.8
20260904085443 64 347 0.0 0.0 0.00 0.02 0.00 93 995.8
20260904084942 64 347 0.0 0.0 0.00 0.02 0.00 93 995.8
20260904084442 64 347 0.0 0.0 0.00 0.02 0.00 93 995.8
20260904083944 64 347 0.0 0.0 0.00 0.02 0.00 93 995.8
20260904083441 64 347 0.0 0.0 0.00 0.02 0.00 93 995.8
20260904082428 64 347 0.0 0.0 0.00 0.02 0.00 93 995.8
20260904081922 64 347 0.0 0.0 0.00 0.02 0.00 93 995.8
20260904081416 64 347 0.0 0.0 0.00 0.02 0.00 93 995.8
20260904080911 65 347 0.0 0.0 0.00 0.02 0.00 93 995.8
20260904080405 64 347 0.0 0.0 0.00 0.02 0.00 93 995.8
20260904075859 64 347 0.0 0.0 0.00 0.02 0.00 93 995.8
20260904075353 64 347 0.0 0.0 0.00 0.02 0.00 93 995.9
20260904074846 64 347 0.0 0.0 0.00 0.02 0.00 93 995.9
20260904074340 64 347 0.0 0.0 0.00 0.02 0.00 93 996.0
20260904073835 64 347 0.0 0.0 0.00 0.02 0.00 93 995.9
20260904072833 64 347 0.0 0.0 0.00 0.02 0.00 93 995.9
20260904072332 64 347 0.0 0.0 0.00 0.02 0.00 93 995.9
20260904071828 64 347 0.0 0.0 0.00 0.02 0.00 93 996.0
20260904071328 64 347 0.0 0.0 0.00 0.02 0.00 93 996.0
20260904070824 64 347 0.0 0.0 0.00 0.02 0.00 93 996.1
20260904070325 64 347 0.0 0.0 0.00 0.02 0.00 93 996.1
20260904065824 64 347 0.0 0.0 0.00 0.02 0.00 93 996.1
20260904065322 64 347 0.0 0.0 0.00 0.02 0.00 93 996.2
20260904064323 64 347 0.0 0.0 0.00 0.03 0.00 93 996.1
20260904063820 64 347 0.0 0.0 0.00 0.03 0.00 93 996.1
20260904063320 64 347 0.0 0.0 0.00 0.03 0.00 93 996.2
20260904062820 64 347 0.0 0.0 0.00 0.03 0.00 93 996.2
20260904062319 64 347 0.0 0.0 0.00 0.03 0.00 93 996.2
20260904061816 64 347 0.0 0.0 0.00 0.03 0.00 93 996.2
20260904061315 64 347 0.0 0.0 0.00 0.03 0.00 93 996.4
20260904060813 64 347 0.0 0.0 0.00 0.03 0.00 93 996.5
20260904060311 64 347 0.0 0.0 0.00 0.03 0.00 93 996.6
20260904055811 64 347 0.0 0.0 0.00 0.03 0.00 93 996.8
20260904053750 64 347 0.0 0.0 0.00 0.03 0.00 93 997.0
20260904052232 64 347 0.0 0.0 0.00 0.03 0.00 93 997.0
20260904051726 64 347 0.0 0.0 0.00 0.03 0.00 93 997.1
20260904051220 64 347 0.0 0.0 0.00 0.03 0.00 93 997.1
20260904050715 64 347 0.0 0.0 0.00 0.03 0.00 93 997.1
20260904050208 64 347 0.0 0.0 0.00 0.03 0.00 93 997.2
20260904045702 64 347 0.0 0.0 0.00 0.03 0.00 93 997.1
20260904045156 64 347 0.0 0.0 0.00 0.03 0.00 93 997.1
20260904044650 64 347 0.0 0.0 0.00 0.03 0.00 93 997.1
20260904044144 64 347 0.0 0.0 0.00 0.03 0.00 93 997.1
20260904043132 64 347 0.0 0.0 0.00 0.03 0.00 93 997.2
20260904042625 64 347 0.0 0.0 0.00 0.03 0.00 93 997.2
20260904042120 64 347 0.0 0.0 0.00 0.03 0.00 93 997.2
20260904041614 64 347 0.0 0.0 0.00 0.03 0.00 93 997.3
20260904041107 64 347 0.0 0.0 0.00 0.03 0.00 93 997.3
20260904040601 64 347 0.0 0.0 0.00 0.03 0.00 93 997.4
20260904040054 64 347 0.0 0.0 0.00 0.03 0.00 93 997.3
20260904035551 64 347 0.0 0.0 0.00 0.03 0.03 93 997.3
20260904035045 64 347 0.0 0.0 0.00 0.03 0.03 93 997.3
20260904034544 64 347 0.0 0.0 0.00 0.03 0.03 93 997.3
20260904033541 64 347 0.0 0.0 0.00 0.03 0.03 93 997.5
20260904033042 64 347 0.0 0.0 0.00 0.03 0.03 93 997.5
20260904032539 64 347 0.0 0.0 0.00 0.03 0.03 93 997.6
20260904032037 64 347 0.0 0.0 0.00 0.03 0.03 93 997.4
20260904031536 64 347 0.0 0.0 0.00 0.03 0.03 93 997.5
20260904031036 64 347 0.0 0.0 0.00 0.03 0.03 93 997.5
20260904030535 64 347 0.0 0.0 0.00 0.03 0.03 92 997.7
20260904030033 64 347 0.0 0.0 0.00 0.03 0.03 92 997.8
20260904025531 64 347 0.0 0.0 0.00 0.03 0.03 92 997.7
20260904025030 65 347 0.0 0.0 0.00 0.03 0.03 92 997.8
20260904024528 65 347 0.0 0.0 0.00 0.03 0.03 92 997.6
20260904024025 65 347 0.0 0.0 0.00 0.03 0.03 92 997.6
20260904023526 65 347 0.0 0.0 0.00 0.03 0.03 92 997.5
20260904023026 65 347 0.0 0.0 0.00 0.03 0.03 92 997.5
20260904022523 65 347 0.0 0.0 0.00 0.03 0.03 92 997.5
20260904021519 65 347 0.0 0.0 0.00 0.03 0.03 92 997.7
20260904021017 65 347 0.0 0.0 0.00 0.03 0.03 92 997.7
20260904020516 66 347 0.0 0.0 0.00 0.03 0.03 92 997.6
20260904020010 66 347 0.0 0.0 0.00 0.03 0.03 92 997.7
20260904014958 66 347 0.0 0.0 0.00 0.03 0.03 92 997.9
20260904014451 66 347 0.0 0.0 0.00 0.03 0.03 92 997.9
20260904013945 66 347 0.0 0.0 0.00 0.03 0.03 92 997.9
20260904013439 66 347 0.0 0.0 0.00 0.03 0.03 92 997.8
20260904012934 66 347 0.0 0.0 0.00 0.03 0.03 92 997.9
20260904012427 67 347 0.0 0.0 0.00 0.03 0.03 92 997.9
20260904011922 67 347 0.0 0.0 0.00 0.03 0.03 92 997.9
20260904011415 67 347 0.0 0.0 0.00 0.03 0.03 92 997.9
20260904010909 67 347 0.0 0.0 0.00 0.03 0.03 92 997.9
20260904010404 67 347 0.0 0.0 0.00 0.03 0.03 92 997.9
20260904005858 67 347 0.0 0.0 0.00 0.03 0.03 92 997.9
20260904005352 67 347 0.0 0.0 0.00 0.03 0.03 92 997.9
20260904004848 67 347 0.0 0.0 0.00 0.03 0.03 92 997.7
20260904004348 67 347 0.0 0.0 0.00 0.03 0.03 92 997.4
20260904003850 67 347 0.0 0.0 0.00 0.03 0.03 92 997.4
20260904001848 67 347 0.0 0.0 0.00 0.03 0.03 92 997.3
20260904001350 67 347 0.0 0.0 0.00 0.03 0.03 92 997.2
20260904000849 67 347 0.0 0.0 0.00 0.03 0.03 92 997.2
20260904000350 67 347 0.0 0.0 0.00 0.03 0.03 92 997.1
20260903235344 68 347 0.0 0.0 0.00 0.03 0.03 91 996.9
20260903234846 68 347 0.0 0.0 0.00 0.03 0.03 91 997.0
20260903233845 68 347 0.0 0.0 0.00 0.03 0.03 91 997.0